Location: Champaign/Urbana Astronomical Society Observatory
(40.0333°N, 88.2833°W)
Time: 23:17:55
(UTC-05:00)

AIST 2D - Pass Details

Date: 25 May 2019
Orbit: 455 x 473 km, 97.2° (Epoch: 25 June)

Event Time Altitude Azimuth Distance (km) Brightness Sun altitude
Rises 22:57:17 0° 29° (NNE) 2,501 ? -23.5°
Reaches altitude 10° 22:59:50 10° 48° (NE) 1,616 ? -23.7°
Enters shadow 23:00:06 11° 52° (NE) 1,539 ? -23.7°
